Weather in Vvedenskoe

Russia / Kurgan Oblast     55°19′26″N   64°04′50″E
temp.,
°C
wind,
m/s
gust,
m/s
humid.,
%
clouds,
%
prec.,
mm/h
press.,
hPa
HPBL,
m
22 april, thu
thu2223:00+7e33573 0.0 103435
02:00+5se33660 0.0 103446
05:00+4sse33715 0.0 103634
08:00+8sse355516 0.0 1036190
11:00+13s553631 0.0 10361133
14:00+15s5628100 0.0 10352028
17:00+15ssw5733100 0.0 10341984
20:00+11s4647100 0.0 103491
23 april, fri
fri2323:00+9s365372 0.0 103492
02:00+8s4960100 0.0 1034162
05:00+7s51169100 0.0 1034257
08:00+9ssw5862100 0.0 1035398
11:00+13s6946100 0.0 10341391
14:00+12sw81051100 0.0 10341715
17:00+13ssw5649100 0.0 10331526
20:00+11sse4950100 0.0 1032277
24 april, sat
sat2423:00+8sse41053100 0.0 1031247
02:00+7sse4949100 0.0 1030233
05:00+7ssw61076100 0.0 1029468
08:00+7se4764100 0.1 1027468
11:00+8sse7970100 0.1 10261150
14:00+9sse5856100 0.3 10241401
17:00+10se7842100 0.3 10231463
20:00+9se61137100 0.0 1021439
25 april, sun
sun2523:00+7se61246100 0.0 1020526
02:00+5se51070100 0.0 1019397
05:00+4e5117388 0.0 1017331
08:00+7ese6858100 0.0 1016403
11:00+12se463822 0.0 1015869
14:00+15sse563164 0.0 10141554
17:00+15s453615 0.0 10141857
20:00+11s34509 0.0 101448
26 april, mon
mon2623:00+9sw4128271 0.4 1015274
02:00+8wsw410725 0.0 1015240
05:00+6wsw5127387 0.0 1017359
08:00+8w710625 0.0 1019954
11:00+10w785012 0.0 10201475
14:00+13w5736100 0.0 10192313
17:00+13wsw7732100 0.0 10192297
20:00+11sw4742100 0.0 1019214